Location: Arcones
(41.1182°N, 3.7238°W)
Time: 20:22:55
(UTC+00:00)

COSMOS 2455 - Pass Details

Date: 11 December 2025
Orbit: 898 x 910 km, 67.1° (Epoch: 12 January)

Event Time Altitude Azimuth Distance (km) Brightness Sun altitude
Rises 19:04:39 0° 198° (SSW) 3,513 6.3 -25.2°
Reaches altitude 10° 19:07:09 10° 196° (SSW) 2,577 5.5 -25.7°
Enters shadow 19:12:49 65° 130° (SE) 990 2.8 -26.7°
